Home   Weather   Mesa   Past weeks
Flag for USA

Past Weather in Mesa, Arizona, USA — Yesterday and Last 2 Weeks

Now
92 °F

Clear.


Feels Like: 89 °F
Forecast: 111 / 87 °F
Wind: 6 mph from Southeast

Location: Mesa / Falcon Field

Current Time: Jul 16, 2019 at 3:58:16 am

Latest Report: Jul 16, 2019 at 2:54 am


Visibility: 10 mi

Pressure: 29.66 "Hg

Humidity: 27%

Dew Point: 53 °F

Location of MesaLocation

Past Weather in Mesa — Graph

°F

Mesa Temperature Yesterday

Maximum temperature yesterday: 111 °F (at 3:54 pm)
Minimum temperature yesterday: 88 °F (at 4:54 am)
Average temperature yesterday: 100 °F

High & Low Weather Summary for the Past Weeks

 TemperatureHumidityPressure
High111 °F (Jul 11, 2:54 pm)45% (Jul 6, 5:54 am)29.93 "Hg (Jul 6, 5:54 am)
Low75 °F (Jul 9, 5:54 am)5% (Jul 8, 3:30 pm)29.61 "Hg (Jul 12, 5:54 pm)
Average95 °F18%29.77 "Hg
* Reported Jul 1 1:54 am — Jul 16 1:54 am, Mesa. Weather by CustomWeather, © 2019

Note: Actual official high and low records may vary slightly from our data, if they occured in-between our weather recording intervals... More about our weather records

Advertising

Mesa Weather History for the Previous 24 Hours

Scroll right to see more
 ConditionsComfort  
Time TempWeatherWind HumidityBarometerVisibility
1:54 am
Tue, Jul 16
94 °FClear.6 mph25%29.66 "Hg10 mi
12:54 am98 °FClear.No wind20%29.66 "Hg10 mi
11:54 pm
Mon, Jul 15
95 °FClear.No wind29%29.67 "Hg10 mi
10:54 pm98 °FClear.No wind27%29.66 "Hg10 mi
9:54 pm101 °FClear.3 mph19%29.66 "Hg10 mi
8:54 pm103 °FClear.3 mph18%29.65 "Hg10 mi
7:54 pm105 °FClear.5 mph17%29.63 "Hg10 mi
6:54 pm109 °FSunny.9 mph15%29.62 "Hg10 mi
5:54 pm110 °FSunny.13 mph14%29.62 "Hg10 mi
4:54 pm111 °FSunny.13 mph14%29.62 "Hg10 mi
3:54 pm111 °FSunny.9 mph13%29.65 "Hg10 mi
2:54 pm110 °FSunny.10 mph15%29.67 "Hg10 mi
1:54 pm109 °FSunny.8 mph17%29.70 "Hg10 mi
12:54 pm108 °FSunny.8 mph19%29.73 "Hg10 mi
11:54 am103 °FSunny.No wind23%29.76 "Hg10 mi
10:54 am101 °FSunny.7 mph24%29.78 "Hg10 mi
9:54 am99 °FSunny.5 mph27%29.79 "Hg10 mi
8:54 am96 °FSunny.3 mph29%29.80 "Hg10 mi
7:54 am94 °FSunny.5 mph31%29.81 "Hg10 mi
6:54 am91 °FSunny.5 mph34%29.80 "Hg10 mi
5:54 am89 °FSunny.6 mph36%29.80 "Hg10 mi
4:54 am88 °FClear.5 mph38%29.79 "Hg10 mi
3:54 am89 °FClear.6 mph36%29.78 "Hg10 mi
Weather by CustomWeather, © 2019

See weather overview

LIVE PARTIAL LUNAR ECLIPSE – Watch the eclipse as it happens